Home   Weather   Waco   Past weeks

Flag for USA Past Weather in Waco, Texas, USA — Yesterday and Last 2 Weeks

Now
78 °F

Mostly cloudy.


Feels Like: 81 °F
Forecast: 72 / 84 °F
Wind: 7 mph from Northeast

Location: Waco Regional Airport

Current Time: Sep 25, 2016 at 5:46:11 PM

Latest Report: Sep 25, 2016 at 4:51 PM


Visibility: 10 mi

Pressure: 29.98 "Hg

Humidity: 84%

Dew Point: 73 °F

Location of WacoLocation

Past Weather in Waco — Graph

°F

Waco Temperature Yesterday

Maximum temperature yesterday: 94 °F (at 2:51 PM)
Minimum temperature yesterday: 76 °F (at 3:51 AM)
Average temperature yesterday: 82 °F

High & Low Weather Summary for the Past Weeks

 TemperatureHumidityPressure
High99 °F (Sep 20, 3:51 PM)100% (Sep 15, 1:51 AM)30.18 "Hg (Sep 15, 1:51 AM)
Low64 °F (Sep 11, 6:51 AM)32% (Sep 21, 3:51 PM)29.85 "Hg (Sep 16, 4:51 PM)
Average82 °F72%29.98 "Hg
* Reported Sep 10 3:51 PM — Sep 25 3:51 PM, Waco, Weather by CustomWeather, © 2016

Note: Actual official high and low records may vary slightly from our data, if they occured in-between our weather recording intervals... More about our weather records

Advertising

Waco Weather History for the Previous 24 Hours

Scroll right to see more
 ConditionsComfort  
Time TempWeatherWind HumidityBarometerVisibility
3:51 PM
Sun, Sep 25
78 °FPartly sunny.9 mph84%29.97 "Hg10 mi
2:51 PM79 °FScattered clouds.9 mph84%29.97 "Hg10 mi
1:51 PM77 °FPartly sunny.8 mph90%30.00 "Hg10 mi
12:51 PM74 °FBroken clouds.10 mph97%30.00 "Hg10 mi
12:02 PM73 °FThundershowers. Fog.12 mph94%30.01 "Hg5 mi
11:58 AM72 °FStrong thunderstorms. Fog.9 mph93%30.01 "Hg2 mi
10:51 AM80 °FMostly cloudy.5 mph85%30.00 "Hg10 mi
9:51 AM78 °FLow clouds.6 mph87%29.99 "Hg7 mi
8:51 AM76 °FLow clouds.8 mph97%29.98 "Hg8 mi
7:51 AM75 °FPartly sunny.6 mph96%29.97 "Hg8 mi
6:59 AM75 °FMostly cloudy.3 mph96%29.99 "Hg10 mi
5:51 AM75 °FPassing clouds.3 mph96%29.95 "Hg10 mi
4:51 AM75 °FPartly cloudy.7 mph96%29.96 "Hg10 mi
3:51 AM76 °FClear.9 mph94%29.94 "Hg10 mi
2:51 AM76 °FPassing clouds.8 mph94%29.94 "Hg10 mi
1:51 AM76 °FPassing clouds.9 mph94%29.94 "Hg10 mi
12:51 AM75 °FPassing clouds.8 mph96%29.93 "Hg10 mi
11:51 PM
Sat, Sep 24
76 °FClear.6 mph94%29.94 "Hg10 mi
10:51 PM77 °FLight rain. Passing clouds.12 mph90%29.93 "Hg10 mi
9:51 PM77 °FLight rain. Clear.13 mph85%29.92 "Hg10 mi
8:51 PM79 °FLight rain. Partly cloudy.9 mph79%29.90 "Hg10 mi
7:51 PM78 °FClear.12 mph76%29.88 "Hg10 mi
6:51 PM86 °FPartly sunny.21 mph61%29.88 "Hg10 mi
5:51 PM92 °FScattered clouds.13 mph49%29.85 "Hg10 mi
Weather by CustomWeather, © 2016

See weather overviewHow to use our weather pages